Hourly Data Report for April 05, 2021

OTTAWA INTL A
ONTARIO
Current Station Operator: NAVCAN

45°19'00.000" N
75°40'00.000" W
114.90 m
6106001
71628
YOW

Download Data

Hourly Data (April 2021)
Hourly Data Report for April 5, 2021
TIME
LST
Temp Definition
°C
Dew Point Definition
°C
Rel Hum Definition
%
Precip. Amount Definition
mm

Wind Dir Definition
10's deg

Wind Spd Definition
km/h
Visibility Definition
km
Stn Press Definition
kPa
Hmdx Definition


Wind Chill Definition


Weather Definition


00:00 6.5 -1.4 57   34 20 24.1 100.60     LegendNANA
01:00 5.3 -1.5 61   34 22 24.1 100.61     Clear
02:00 4.2 -1.6 66   34 20 24.1 100.64     LegendNANA
03:00 3.4 -1.7 69   33 20 24.1 100.63     LegendNANA
04:00 2.9 -2.0 70   34 17 24.1 100.63     Clear
05:00 1.9 -2.3 74   33 17 24.1 100.63     LegendNANA
06:00 2.1 -2.1 74   34 15 24.1 100.68     LegendNANA
07:00 3.7 -1.6 68   34 18 24.1 100.68     Clear
08:00 6.0 -1.7 58   33 18 24.1 100.67     LegendNANA
09:00 7.8 -3.2 45   1 14 24.1 100.66     LegendNANA
10:00 8.9 -4.7 38   1 18 24.1 100.62     Clear
11:00 9.9 -4.7 35   31 23 24.1 100.54     LegendNANA
12:00 10.8 -4.4 34   32 21 24.1 100.52     LegendNANA
13:00 12.1 -4.5 31   31 25 24.1 100.45     Clear
14:00 12.4 -6.5 26   33 24 24.1 100.39     LegendNANA
15:00 13.4 -6.1 25   32 31 24.1 100.32     LegendNANA
16:00 13.4 -7.1 23   31 29 24.1 100.30     Mainly Clear
17:00 13.2 -6.6 25   33 27 24.1 100.30     LegendNANA
18:00 12.0 -7.0 26   34 24 24.1 100.29     LegendNANA
19:00 10.1 -7.1 29   33 15 24.1 100.31     Clear
20:00 9.0 -7.1 31   34 7 24.1 100.38     LegendNANA
21:00 6.5 -6.6 39   32 16 24.1 100.43     LegendNANA
22:00 4.3 -6.5 45   32 15 24.1 100.41     Clear
23:00 4.6 -6.5 44   32 17 24.1 100.43     LegendNANA

Notes on Data Quality.

Legend

  • E = Estimated
  • M = Missing
  • NA = Not Available*
  • [empty] = Indicates an unobserved value
Date modified: